Location: ?????????
(54.7630°N, 39.4991°E)
Time: 07:08:17
(UTC+00:00)

ARIANE 6 FM1 Upper Stage - Pass Details

Date: 14 April 2026
Orbit: 526 x 602 km, 62.0° (Epoch: 12 May)

Event Time Altitude Azimuth Distance (km) Brightness Sun altitude
Rises 21:39:41 0° 303° (WNW) 2,687 6.5 -25.5°
Reaches altitude 10° 21:41:57 10° 310° (NW) 1,787 5.6 -25.4°
Maximum altitude 21:45:50 47° 25° (NNE) 707 3.5 -25.4°
Enters shadow 21:46:24 44° 53° (NE) 745 3.5 -25.4°
